Regional Weather Roundup
Issued by NWS Upton, NY

Current Version | Previous Version | Text Only | Print | Product List | Glossary On
Versions: 1 2 3 4 5 6 7 8 9 10 11 12 13 14 15 16 17 18 19 20 21 22 23 24 25 26 27 28 29 30 31 32 33 34 35 36 37 38 39 40 41 42 43 44 45 46 47 48 49 50
000
ASUS41 KOKX 301108
RWROKX

REGIONAL WEATHER ROUNDUP
NATIONAL WEATHER SERVICE NEW YORK NY
700 AM EDT THU JUL 30 2015

NOTE: "FAIR" INDICATES FEW OR NO CLOUDS BELOW 12,000 FEET WITH NO
SIGNIFICANT WEATHER AND/OR OBSTRUCTIONS TO VISIBILITY.

NYZ071-072-176-178-NJZ106-104-301200-
NEW YORK CITY METRO AREA


CITY           SKY/WX    TMP DP  RH WIND       PRES   REMARKS
CENTRAL PARK   PTSUNNY   80  71  74 VRB3      29.94R
LAGUARDIA APRT PTSUNNY   80  71  74 S9        29.91R
KENNEDY INTL   PTSUNNY   77  71  82 S8        29.93R
NEWARK/LIBERTY PTSUNNY   78  73  84 S7        29.91R
BRNX BOT. GARD   N/A     79  72  78 W10       29.91S
TETERBORO      CLOUDY    79  71  76 S10       29.90R
$$

NYZ177-179-078>081-301200-
LONG ISLAND NEW YORK

CITY           SKY/WX    TMP DP  RH WIND       PRES   REMARKS
FARMINGDALE    MOSUNNY   77  71  82 SW12      29.93R
ISLIP          PTSUNNY   77  72  84 SW12G17   29.92R
SHIRLEY        MOSUNNY   77  73  87 S9        29.94R
WESTHAMPTON    MOSUNNY   77  74  90 SW10      29.95R
MONTAUK POINT    N/A     77  73  87 SW8       29.93S
$$

NYZ052-065-067-301200-
HUDSON VALLEY

CITY           SKY/WX    TMP DP  RH WIND       PRES   REMARKS
WHITE PLAINS   MOSUNNY   77  73  87 S3        29.92R
NEWBURGH       CLOUDY    77  73  88 CALM      29.92F
MONTGOMERY     CLOUDY    74  71  91 S3        29.90S
POUGHKEEPSIE   CLOUDY    75  70  84 CALM      29.89R
ALBANY         PTSUNNY   75  66  73 S10       29.86S
$$

NJZ001-105-106-008-010-013-015-019>022-104-301200-
NEW JERSEY

CITY           SKY/WX    TMP DP  RH WIND       PRES   REMARKS
NEWARK/LIBERTY PTSUNNY   78  73  84 S7        29.91R
TETERBORO      CLOUDY    79  71  76 S10       29.90R
CALDWELL       PTSUNNY   77  71  82 SW5       29.91S
MORRISTOWN     CLOUDY    77  73  88 S5        29.92R HAZE
SOMERVILLE     CLOUDY    74  72  93 CALM      29.90R FOG
SUSSEX         CLOUDY    73  70  90 CALM      29.91S FOG
ANDOVER          N/A     73  72  96 CALM      29.92S
TRENTON        CLOUDY    77  72  84 S7        29.92R
MILLVILLE      PTSUNNY   77  74  90 VRB3      29.94S
ATLANTIC CITY  CLOUDY    77  72  84 S10       29.94S
WRIGHTSTOWN    SUNNY     73  73  99 S7        29.91S
TOMS RIVER       N/A     75  72  88 SW7       29.94S
BELMAR         CLOUDY    75  68  78 SW6       29.94R
$$

PAZ047>061-062-071-301200-
EASTERN PENNSYLVANIA

CITY           SKY/WX    TMP DP  RH WIND       PRES   REMARKS
PHILADELPHIA   PTSUNNY   78  73  84 S8        29.93R
ALLENTOWN      CLOUDY    78  73  84 S5        29.91S
SCRANTON       PTSUNNY   76  71  85 W3        29.91R HAZE
$$

CTZ002-004>006-009-010-012-RIZ004-006-007-MAZ004-011-015-301200-
SOUTHERN NEW ENGLAND
 IN CT

CITY           SKY/WX    TMP DP  RH WIND       PRES   REMARKS
BRADLEY INTL   PTSUNNY   75  70  84 S6        29.89R FOG
HARTFORD       SUNNY     76  72  87 S7        29.89R
DANBURY        CLOUDY    77  70  79 SW5       29.93S
WTRBRY/OXFORD  PTSUNNY   73  66  78 SW3       29.95R HAZE
BRIDGEPORT     MOSUNNY   78  74  87 SW7       29.91R
MERIDEN        MOSUNNY   75  71  87 S6        29.91S FOG
NEW HAVEN      PTSUNNY   76  73  91 S3        29.91S
CHESTER        FAIR      73  73 100 SW5       29.94R
GROTON         SUNNY     74  72  93 SW3       29.91R FOG
WILLIMANTIC    SUNNY     69  66  90 CALM      29.92R

 IN RI

CITY           SKY/WX    TMP DP  RH WIND       PRES   REMARKS
PROVIDENCE     MOSUNNY   76  72  87 SW7       29.91R
BLOCK ISLAND     N/A     73  72  94 SW15      29.93S
WESTERLY       CLOUDY    74  72  93 SW3       29.92S FOG

 IN MA

CITY           SKY/WX    TMP DP  RH WIND       PRES   REMARKS
BOSTON         MOSUNNY   76  68  76 SW8       29.88S
WORCESTER      SUNNY     72  66  81 SW8       29.93R
WESTFIELD      SUNNY     69  67  93 CALM      29.89S
PROVINCETOWN   SUNNY     73  66  78 SW7       29.90R
NANTUCKET      CLOUDY    72  70  93 SW12      29.93R FOG
$$

ANZ330-335-338-340-345-350-353-355-301200-
COASTAL MARINE OBSERVATIONS


STATION/POSITION TIME  SKY/WX   TEMP    WIND        PRES    VSBY  WAVE
                                AIR SEA DIR/SP/G                  HT/PER
                 (UTC)          (F)     (DEG/KT/KT) (MB)    (MI)  (FT/S)
NY HARB ENTRANCE 1050            77 76  210/ 14/ 16 1012.8          3/ 9
4S FIRE IS       NOT AVBL
20S FIRE ISLAND  1050            76 74  220/ 14/ 14 1013.2          4/ 5
GREAT SOUTH BAY  1030            77 81  220/ 12/ 16   N/A
23SW MTP         1050            75 74  230/ 14/ 16 1013.1          4/10
HUDSON CANYON    NOT AVBL
KINGS POINT      1000            77                   N/A
EXECUTION ROCKS  1000            76     180/  4/  4   N/A
CENTRAL LI SOUND NOT AVBL
EASTERN LI SOUND 1000            71 69  210/  2/  2   N/A
ROBBINS REEF     1000            77                   N/A
$$


>>>>>>>>>>>>>>>>>>>>>>>>>>>> KEY <<<<<<<<<<<<<<<<<<<<<<<<<<<
>                                                          <
>     SKY/WX - SKY CONDITION/PRESENT WEATHER               <
>     TMP    - TEMPERATURE IN FAHRENHEIT                   <
>     DP     - DEWPOINT IN FAHRENHEIT                      <
>     RH     - RELATIVE HUMIDITY IN PERCENT                <
>     WIND   - DIRECTION AND SPEED IN MPH                  <
>     PRES   - MEAN SEA LEVEL PRESSURE IN INCHES OF HG     <
>     WCI    - WIND CHILL INDEX                            <
>     VSB    - VISIBILITY IN MILES                         <
>     HX     - HEAT INDEX                                  <
>     TC     - TEMPERATURE IN CELSIUS                      <
>     VRB    - VARIABLE WIND DIRECTION                     <
>                                                          <
>>>>>>>>>>>>>>>>>>>>>>>>>>>> KEY <<<<<<<<<<<<<<<<<<<<<<<<<<<





USA.gov is the U.S. government's official web portal to all federal, state and local government web resources and services.